| time (UTC) | temp C | wind direction | speed KPH | gust KPH | rain 1hr cm | rain 24hr cm | rain mn cm | humidity % | barometer mb |
| 20260510071015 | 12 | 201 | 0.0 | 1.6 | 0.00 | 0.33 | 0.00 | 95 | 1010.9 |
| 20260510065517 | 12 | 197 | 0.0 | 0.0 | 0.00 | 0.33 | 0.00 | 95 | 1010.6 |
| 20260510064037 | 12 | 146 | 0.0 | 0.0 | 0.00 | 0.33 | 0.00 | 95 | 1010.6 |
| 20260510062519 | 12 | 177 | 0.0 | 0.0 | 0.00 | 0.33 | 0.00 | 95 | 1010.6 |
| 20260510061021 | 12 | 177 | 0.0 | 0.0 | 0.00 | 0.33 | 0.00 | 95 | 1010.6 |
| 20260510055524 | 12 | 205 | 0.0 | 0.0 | 0.00 | 0.33 | 0.00 | 95 | 1010.8 |
| 20260510054025 | 12 | 178 | 0.0 | 4.8 | 0.00 | 0.33 | 0.00 | 94 | 1010.7 |
| 20260510052528 | 12 | 196 | 0.0 | 4.8 | 0.00 | 0.33 | 0.00 | 94 | 1010.6 |
| 20260510051028 | 12 | 165 | 0.0 | 3.2 | 0.00 | 0.33 | 0.00 | 94 | 1010.7 |
| 20260510045530 | 12 | 173 | 0.0 | 14.5 | 0.00 | 0.33 | 0.00 | 93 | 1010.5 |
| 20260510044051 | 12 | 203 | 0.0 | 4.8 | 0.00 | 0.33 | 0.00 | 93 | 1010.7 |
| 20260510042548 | 12 | 202 | 0.0 | 11.3 | 0.00 | 0.33 | 0.00 | 93 | 1010.9 |
| 20260510041013 | 12 | 192 | 0.0 | 12.9 | 0.00 | 0.33 | 0.00 | 93 | 1010.8 |
| 20260510035531 | 12 | 181 | 0.0 | 1.6 | 0.00 | 0.33 | 0.33 | 92 | 1010.8 |
| 20260510034016 | 12 | 196 | 0.0 | 4.8 | 0.03 | 0.33 | 0.33 | 93 | 1010.9 |
| 20260510032515 | 12 | 178 | 0.0 | 0.0 | 0.05 | 0.33 | 0.33 | 93 | 1010.8 |
| 20260510031040 | 11 | 116 | 0.0 | 0.0 | 0.05 | 0.33 | 0.33 | 93 | 1010.5 |
| 20260510025517 | 11 | 158 | 0.0 | 0.0 | 0.05 | 0.33 | 0.33 | 92 | 1010.8 |
| 20260510024021 | 11 | 137 | 0.0 | 0.0 | 0.03 | 0.30 | 0.30 | 92 | 1011.1 |
| 20260510022539 | 11 | 130 | 0.0 | 0.0 | 0.00 | 0.28 | 0.28 | 91 | 1011.2 |
| 20260510021018 | 11 | 119 | 0.0 | 1.6 | 0.03 | 0.28 | 0.28 | 91 | 1011.4 |
| 20260510015521 | 11 | 117 | 0.0 | 0.0 | 0.03 | 0.28 | 0.28 | 92 | 1011.9 |
| 20260510014021 | 11 | 117 | 0.0 | 0.0 | 0.03 | 0.28 | 0.28 | 91 | 1012.1 |
| 20260510012523 | 11 | 122 | 0.0 | 0.0 | 0.05 | 0.28 | 0.28 | 91 | 1012.1 |
| 20260510011024 | 11 | 128 | 0.0 | 3.2 | 0.03 | 0.25 | 0.25 | 91 | 1012.3 |
| 20260510005547 | 12 | 127 | 0.0 | 0.0 | 0.05 | 0.25 | 0.25 | 90 | 1012.4 |
| 20260510004025 | 12 | 186 | 0.0 | 3.2 | 0.05 | 0.25 | 0.25 | 90 | 1012.5 |
| 20260510002543 | 12 | 171 | 0.0 | 3.2 | 0.05 | 0.23 | 0.23 | 89 | 1012.5 |
| 20260510001027 | 12 | 222 | 0.0 | 4.8 | 0.08 | 0.23 | 0.23 | 89 | 1012.5 |
| 20260509235526 | 12 | 190 | 0.0 | 6.4 | 0.08 | 0.20 | 0.20 | 89 | 1012.5 |
| 20260509234031 | 12 | 222 | 1.6 | 9.7 | 0.08 | 0.20 | 0.20 | 89 | 1012.6 |
| 20260509232530 | 12 | 260 | 0.0 | 3.2 | 0.05 | 0.18 | 0.18 | 89 | 1012.6 |
| 20260509231014 | 12 | 209 | 0.0 | 0.0 | 0.03 | 0.15 | 0.15 | 90 | 1012.4 |
| 20260509225513 | 12 | 266 | 0.0 | 1.6 | 0.03 | 0.13 | 0.13 | 89 | 1012.4 |
| 20260509224017 | 13 | 256 | 0.0 | 4.8 | 0.03 | 0.13 | 0.13 | 88 | 1012.3 |
| 20260509222518 | 13 | 237 | 0.0 | 6.4 | 0.05 | 0.13 | 0.13 | 88 | 1012.2 |
| 20260509221023 | 13 | 247 | 0.0 | 6.4 | 0.05 | 0.13 | 0.13 | 87 | 1012.0 |
| 20260509215522 | 13 | 259 | 0.0 | 4.8 | 0.03 | 0.10 | 0.10 | 86 | 1011.9 |
| 20260509214027 | 13 | 200 | 0.0 | 0.0 | 0.03 | 0.10 | 0.10 | 86 | 1011.7 |
| 20260509212525 | 13 | 308 | 0.0 | 3.2 | 0.00 | 0.08 | 0.08 | 84 | 1011.8 |
| 20260509211031 | 14 | 199 | 0.0 | 17.7 | 0.00 | 0.08 | 0.08 | 82 | 1011.5 |
| 20260509205529 | 15 | 213 | 1.6 | 16.1 | 0.00 | 0.08 | 0.08 | 76 | 1011.3 |
| 20260509204014 | 16 | 203 | 1.6 | 19.3 | 0.00 | 0.08 | 0.08 | 74 | 1011.1 |
| 20260509202534 | 16 | 77 | 0.0 | 9.7 | 0.00 | 0.08 | 0.08 | 75 | 1011.3 |
| 20260509201013 | 15 | 166 | 0.0 | 17.7 | 0.00 | 0.08 | 0.08 | 76 | 1011.4 |
| 20260509195517 | 16 | 220 | 1.6 | 24.1 | 0.00 | 0.08 | 0.08 | 74 | 1011.5 |
| 20260509194017 | 16 | 223 | 1.6 | 19.3 | 0.00 | 0.08 | 0.08 | 73 | 1011.6 |
| 20260509192520 | 16 | 194 | 3.2 | 29.0 | 0.00 | 0.08 | 0.08 | 73 | 1011.7 |
| 20260509191042 | 16 | 234 | 1.6 | 24.1 | 0.00 | 0.08 | 0.08 | 74 | 1011.8 |
| 20260509185524 | 16 | 221 | 0.0 | 9.7 | 0.00 | 0.08 | 0.08 | 74 | 1011.8 |
| 20260509184045 | 16 | 200 | 0.0 | 17.7 | 0.00 | 0.08 | 0.08 | 73 | 1011.8 |
| 20260509182523 | 16 | 244 | 1.6 | 19.3 | 0.00 | 0.08 | 0.08 | 70 | 1012.0 |
| 20260509181027 | 16 | 219 | 1.6 | 20.9 | 0.00 | 0.08 | 0.08 | 70 | 1012.2 |
| 20260509175524 | 16 | 215 | 0.0 | 6.4 | 0.00 | 0.08 | 0.08 | 71 | 1012.1 |
| 20260509174028 | 15 | 202 | 1.6 | 12.9 | 0.00 | 0.08 | 0.08 | 72 | 1012.4 |
| 20260509172527 | 15 | 236 | 0.0 | 16.1 | 0.00 | 0.08 | 0.08 | 75 | 1012.5 |
| 20260509171032 | 15 | 174 | 0.0 | 11.3 | 0.00 | 0.08 | 0.08 | 74 | 1012.7 |
| 20260509165551 | 15 | 169 | 1.6 | 17.7 | 0.00 | 0.08 | 0.08 | 73 | 1012.8 |
| 20260509164034 | 15 | 207 | 1.6 | 11.3 | 0.00 | 0.08 | 0.08 | 72 | 1012.6 |
| 20260509162512 | 15 | 130 | 0.0 | 8.0 | 0.00 | 0.08 | 0.08 | 71 | 1012.6 |
| 20260509161052 | 15 | 186 | 1.6 | 16.1 | 0.00 | 0.08 | 0.08 | 69 | 1012.8 |
| 20260509155514 | 15 | 122 | 1.6 | 14.5 | 0.00 | 0.08 | 0.08 | 74 | 1012.9 |
| 20260509154036 | 14 | 186 | 1.6 | 14.5 | 0.00 | 0.08 | 0.08 | 75 | 1013.0 |
| 20260509152518 | 14 | 163 | 1.6 | 22.5 | 0.00 | 0.08 | 0.08 | 76 | 1013.1 |
| 20260509151038 | 13 | 153 | 1.6 | 14.5 | 0.00 | 0.08 | 0.08 | 75 | 1013.3 |
| 20260509145520 | 13 | 169 | 1.6 | 14.5 | 0.00 | 0.08 | 0.08 | 77 | 1013.3 |
| 20260509144019 | 13 | 166 | 0.0 | 4.8 | 0.00 | 0.08 | 0.08 | 77 | 1013.3 |
| 20260509142521 | 13 | 163 | 0.0 | 3.2 | 0.00 | 0.08 | 0.08 | 78 | 1013.2 |
| 20260509141021 | 12 | 207 | 0.0 | 3.2 | 0.00 | 0.08 | 0.08 | 82 | 1013.2 |
| 20260509135520 | 12 | 140 | 0.0 | 3.2 | 0.00 | 0.08 | 0.08 | 83 | 1013.4 |
| 20260509134024 | 12 | 171 | 0.0 | 1.6 | 0.00 | 0.08 | 0.08 | 85 | 1013.8 |
| 20260509132523 | 12 | 178 | 0.0 | 4.8 | 0.00 | 0.08 | 0.08 | 84 | 1013.9 |
| 20260509131029 | 12 | 132 | 0.0 | 3.2 | 0.00 | 0.08 | 0.08 | 87 | 1013.7 |
| 20260509125527 | 12 | 125 | 0.0 | 0.0 | 0.00 | 0.08 | 0.08 | 86 | 1013.8 |
| 20260509124032 | 12 | 116 | 0.0 | 0.0 | 0.00 | 0.08 | 0.08 | 90 | 1014.1 |
| 20260509122530 | 11 | 115 | 0.0 | 0.0 | 0.00 | 0.08 | 0.08 | 91 | 1014.0 |
| 20260509121035 | 11 | 99 | 0.0 | 0.0 | 0.03 | 0.08 | 0.08 | 95 | 1013.8 |
| 20260509115512 | 10 | 45 | 0.0 | 0.0 | 0.05 | 0.08 | 0.08 | 94 | 1013.9 |
| 20260509114017 | 9 | 335 | 0.0 | 0.0 | 0.08 | 0.08 | 0.08 | 94 | 1014.0 |
| 20260509112515 | 8 | 329 | 0.0 | 0.0 | 0.08 | 0.08 | 0.08 | 93 | 1014.2 |
| 20260509111020 | 8 | 260 | 0.0 | 0.0 | 0.05 | 0.05 | 0.05 | 92 | 1014.3 |
| 20260509105539 | 8 | 259 | 0.0 | 0.0 | 0.03 | 0.03 | 0.03 | 91 | 1014.3 |
| 20260509104017 | 8 | 259 | 0.0 | 0.0 | 0.00 | 0.00 | 0.00 | 91 | 1014.2 |
| 20260509102519 | 8 | 259 | 0.0 | 0.0 | 0.00 | 0.00 | 0.00 | 90 | 1014.2 |
| 20260509101020 | 8 | 259 | 0.0 | 0.0 | 0.00 | 0.00 | 0.00 | 90 | 1014.0 |
| 20260509095523 | 7 | 259 | 0.0 | 0.0 | 0.00 | 0.00 | 0.00 | 90 | 1013.7 |
| 20260509094024 | 7 | 259 | 0.0 | 0.0 | 0.00 | 0.00 | 0.00 | 90 | 1013.6 |
| 20260509092525 | 7 | 300 | 0.0 | 0.0 | 0.00 | 0.00 | 0.00 | 90 | 1013.2 |
| 20260509091025 | 7 | 300 | 0.0 | 0.0 | 0.00 | 0.00 | 0.00 | 89 | 1013.0 |
| 20260509085529 | 7 | 300 | 0.0 | 0.0 | 0.00 | 0.00 | 0.00 | 90 | 1012.9 |
| 20260509084030 | 7 | 300 | 0.0 | 0.0 | 0.00 | 0.00 | 0.00 | 89 | 1012.8 |
| 20260509082549 | 7 | 300 | 0.0 | 0.0 | 0.00 | 0.00 | 0.00 | 89 | 1012.8 |
| 20260509081013 | 7 | 300 | 0.0 | 0.0 | 0.00 | 0.00 | 0.00 | 89 | 1012.9 |
| 20260509075512 | 7 | 300 | 0.0 | 0.0 | 0.00 | 0.00 | 0.00 | 90 | 1013.0 |
| 20260509074015 | 7 | 300 | 0.0 | 0.0 | 0.00 | 0.00 | 0.00 | 89 | 1013.3 |
| 20260509072514 | 6 | 300 | 0.0 | 0.0 | 0.00 | 0.00 | 0.00 | 89 | 1013.2 |